Location: Bermeries
(50.2863°N, 3.7551°E)
Time: 02:53:50
(UTC+00:00)

CZ-2C R/B - Pass Details

Date: 23 May 2024
Orbit: 703 x 904 km, 98.2° (Epoch: 21 June)

Event Time Altitude Azimuth Distance (km) Brightness Sun altitude
Rises 01:35:04 0° 17° (NNE) 3,539 8.2 -14.8°
Reaches altitude 10° 01:37:36 10° 23° (NNE) 2,597 7.2 -14.6°
Maximum altitude 01:43:15 50° 98° (E) 1,138 4.0 -14.2°
Enters shadow 01:48:29 12° 172° (S) 2,434 5.1 -13.7°
